311P/PanSTARRS (2011)

Japanese version
Home page
Updated on December 31, 2015

---------------------------------------------------------------------

* Profile

* Orbital Elements

Epoch 2010 Dec. 30.0 TT = JDT 2455560.5
T 2011 Jan. 17.97874 TT                                 MPC
q   1.9361879            (2000.0)            P               Q
n   0.30440365     Peri.  143.90174     +0.44853892     -0.88966869
a   2.1886156      Node   279.30818     +0.79838046     +0.44181274
e   0.1153367      Incl.    4.96773     +0.40174804     +0.11528713
P   3.24
From 151 observations 2010 Oct. 17-2014 Feb. 11, mean residual 0".3.

* Magnitudes Graph

        H = 17.5  G = 0.15

---------------------------------------------------------------------

The orbital elements are published on M.P.E.C. 2014-R69.
The magnitudes graphs are made with Comet for Windows.

---------------------------------------------------------------------

Copyright(C) Seiichi Yoshida (comet@aerith.net). All rights reserved.